{"data":{"norad_id":58986,"epoch":"2026-09-19T23:52:29.579520Z","epoch_age_seconds":199323,"freshness":"STALE","line1":"1 58986U 24031X   26262.99478680 -.00000535  00000+0 -47086-5 0  9999","line2":"2 58986  53.1599 111.9300 0001278  86.8422 273.2727 15.34387009146295","mean_motion":15.34387009,"eccentricity":0.0001278,"inclination_deg":53.1599,"raan_deg":111.93,"arg_perigee_deg":86.8422,"mean_anomaly_deg":273.2727,"bstar":-4.7086e-6,"rev_number":14629,"period_min":93.848552650253,"perigee_km":461.86758815191,"apogee_km":463.6161167866,"semimajor_km":6840.8788524693,"source":"CELESTRAK","updated_at":"2026-09-21T09:00:34.022785Z"}}